{"data":{"norad_id":58168,"epoch":"2026-05-25T04:17:43.256832Z","epoch_age_seconds":53554,"freshness":"FRESH","line1":"1 58168U 23166U   26145.17897288  .00000432  00000+0  26712-4 0  9994","line2":"2 58168  53.1608 224.0845 0000954  75.0058 285.1049 15.30197077144740","mean_motion":15.30197077,"eccentricity":9.54e-5,"inclination_deg":53.1608,"raan_deg":224.0845,"arg_perigee_deg":75.0058,"mean_anomaly_deg":285.1049,"bstar":2.6712e-5,"rev_number":14474,"period_min":94.105525467554,"perigee_km":474.56998636431,"apogee_km":475.87760760438,"semimajor_km":6853.3607969843,"source":"CELESTRAK","updated_at":"2026-05-25T13:38:18.565205Z"}}